User: anonymous   Login
Location: Columbia
(38.9520°N, 92.3340°W)
Time: 09:33:22
(UTC-06:00)
Language:

FENGYUN 3A - Orbit

View from above orbital plane
View from above orbital plane
View from above satellite
View from above satellite

Ground track
Ground track

The orbit data is extracted from the following two-line orbital elements,

1 32958U 08026A   18050.17121732  .00000025  00000-0  31330-4 0  9992
2 32958  98.3890  71.2325 0008395 287.2596  72.7667 14.19693275504371
Epoch (UTC): 19 February 2018 04:06:33
Eccentricity: 0.0008395
inclination: 98.3890°
perigee height: 820 km
apogee height: 832 km
right ascension of ascending node: 71.2325°
argument of perigee: 287.2596°
revolutions per day: 14.19693275
mean anomaly at epoch: 72.7667°
orbit number at epoch: 50437

The dashed part of the orbit path shows where the satellite is in the earth's shadow,  

DLR